Overview Statistics Trail Chart Weather Telemetry Raw packets
 

This is the latest recevied weather packets stored in our database for station/object WA6OOO. If no packets are shown the sender has not sent any weather packets the latest 10 day(s).

<< 45 46 47 48 49 50 51 >>
Time Temp. Humidity Pressure Rain* Wind** Luminosity Snow
1788372938 23.89° C 60% 1020.1 hPa 0 mm - 630 W/m² -
1788372637 23.89° C 61% 1020.2 hPa 0 mm - 619 W/m² -
1788372332 23.89° C 60% 1019.9 hPa 0 mm - 606 W/m² -
1788372028 23.89° C 59% 1019.8 hPa 0 mm - 602 W/m² -
1788371727 23.33° C 59% 1019.9 hPa 0 mm - 594 W/m² -
1788371424 23.89° C 59% 1019.9 hPa 0 mm - 585 W/m² -
1788371120 23.33° C 57% 1020 hPa 0 mm - 577 W/m² -
1788370816 23.33° C 58% 1020 hPa 0 mm - 565 W/m² -
1788370515 23.33° C 57% 1020 hPa 0 mm - 553 W/m² -
1788370210 23.33° C 57% 1019.9 hPa 0 mm - 542 W/m² -
1788369909 23.89° C 56% 1020.1 hPa 0 mm - 531 W/m² -
1788369605 23.33° C 57% 1020 hPa 0 mm - 518 W/m² -
1788369301 22.78° C 59% 1020 hPa 0 mm - 505 W/m² -
1788368996 22.78° C 58% 1019.8 hPa 0 mm - 493 W/m² -
1788368696 22.22° C 59% 1019.8 hPa 0 mm - 479 W/m² -
1788368392 22.78° C 58% 1019.9 hPa 0 mm - 465 W/m² -
1788368091 22.78° C 59% 1019.8 hPa 0 mm - 450 W/m² -
1788367786 22.22° C 59% 1019.9 hPa 0 mm - 437 W/m² -
1788367481 22.78° C 58% 1019.7 hPa 0 mm - 424 W/m² -
1788367180 22.22° C 59% 1019.6 hPa 0 mm - 411 W/m² -
1788366876 22.22° C 61% 1019.7 hPa 0 mm - 397 W/m² -
1788366573 22.22° C 60% 1019.7 hPa 0 mm - 386 W/m² -
1788366269 22.22° C 60% 1019.6 hPa 0 mm - 371 W/m² -
1788365968 21.67° C 60% 1019.6 hPa 0 mm - 357 W/m² -
1788365664 22.22° C 59% 1019.7 hPa 0 mm - 341 W/m² -

* Rain latest hour (hover to see other rain measurements)
** Current wind speed in m/s (hover to see current wind gust speed)